| time (UTC) | temp F | wind direction | speed knots | gust knots | rain 1hr in | rain 24hr in | rain mn in | humidity % | barometer mb |
| 20260505201210 | 75 | 304 | 2.6 | 3.5 | 0.00 | 0.00 | 0.00 | 27 | 1011.9 |
| 20260505200708 | 75 | 173 | 7.0 | 7.8 | 0.00 | 0.00 | 0.00 | 28 | 1011.9 |
| 20260505200204 | 74 | 159 | 3.5 | 8.7 | 0.00 | 0.00 | 0.00 | 28 | 1011.9 |
| 20260505195700 | 75 | 286 | 1.7 | 6.1 | 0.00 | 0.00 | 0.00 | 27 | 1012.0 |
| 20260505195158 | 74 | 210 | 0.9 | 2.6 | 0.00 | 0.00 | 0.00 | 27 | 1012.1 |
| 20260505194655 | 73 | 190 | 4.3 | 7.0 | 0.00 | 0.00 | 0.00 | 28 | 1012.1 |
| 20260505194151 | 73 | 180 | 1.7 | 2.6 | 0.00 | 0.00 | 0.00 | 29 | 1012.0 |
| 20260505193647 | 73 | 213 | 0.0 | 5.2 | 0.00 | 0.00 | 0.00 | 28 | 1012.1 |
| 20260505193144 | 74 | 294 | 2.6 | 5.2 | 0.00 | 0.00 | 0.00 | 28 | 1012.2 |
| 20260505192643 | 74 | 256 | 2.6 | 6.1 | 0.00 | 0.00 | 0.00 | 27 | 1012.3 |
| 20260505192141 | 74 | 34 | 0.9 | 3.5 | 0.00 | 0.00 | 0.00 | 27 | 1012.2 |
| 20260505191639 | 72 | 331 | 1.7 | 6.1 | 0.00 | 0.00 | 0.00 | 29 | 1012.3 |
| 20260505191137 | 73 | 356 | 2.6 | 5.2 | 0.00 | 0.00 | 0.00 | 28 | 1012.3 |
| 20260505190632 | 73 | 300 | 2.6 | 6.1 | 0.00 | 0.00 | 0.00 | 27 | 1012.4 |
| 20260505190127 | 70 | 359 | 5.2 | 8.7 | 0.00 | 0.00 | 0.00 | 30 | 1012.4 |
| 20260505185624 | 71 | 88 | 4.3 | 6.1 | 0.00 | 0.00 | 0.00 | 30 | 1012.6 |
| 20260505185120 | 72 | 14 | 1.7 | 5.2 | 0.00 | 0.00 | 0.00 | 29 | 1012.7 |
| 20260505184617 | 72 | 279 | 0.0 | 0.9 | 0.00 | 0.00 | 0.00 | 28 | 1012.9 |
| 20260505184114 | 72 | 258 | 1.7 | 2.6 | 0.00 | 0.00 | 0.00 | 28 | 1012.7 |
| 20260505183611 | 70 | 300 | 4.3 | 5.2 | 0.00 | 0.00 | 0.00 | 30 | 1012.9 |
| 20260505183109 | 70 | 313 | 3.5 | 7.8 | 0.00 | 0.00 | 0.00 | 31 | 1012.9 |
| 20260505182604 | 70 | 330 | 1.7 | 6.1 | 0.00 | 0.00 | 0.00 | 30 | 1012.9 |
| 20260505182101 | 69 | 80 | 3.5 | 5.2 | 0.00 | 0.00 | 0.00 | 31 | 1012.8 |
| 20260505181558 | 71 | 337 | 1.7 | 3.5 | 0.00 | 0.00 | 0.00 | 30 | 1013.1 |
| 20260505181055 | 72 | 354 | 1.7 | 5.2 | 0.00 | 0.00 | 0.00 | 30 | 1013.1 |
| 20260505180550 | 72 | 272 | 0.0 | 2.6 | 0.00 | 0.00 | 0.00 | 29 | 1013.3 |
| 20260505180049 | 70 | 342 | 1.7 | 2.6 | 0.00 | 0.00 | 0.00 | 30 | 1013.8 |
| 20260505175549 | 69 | 19 | 0.9 | 5.2 | 0.00 | 0.00 | 0.00 | 31 | 1013.3 |
| 20260505175046 | 68 | 342 | 6.1 | 7.8 | 0.00 | 0.00 | 0.00 | 32 | 1013.2 |
| 20260505174543 | 68 | 0 | 1.7 | 3.5 | 0.00 | 0.00 | 0.00 | 33 | 1013.3 |
| 20260505174039 | 68 | 198 | 0.9 | 2.6 | 0.00 | 0.00 | 0.00 | 32 | 1013.5 |
| 20260505173536 | 66 | 333 | 2.6 | 6.1 | 0.00 | 0.00 | 0.00 | 34 | 1013.3 |
| 20260505173033 | 65 | 312 | 0.0 | 1.7 | 0.00 | 0.00 | 0.00 | 35 | 1013.5 |
| 20260505172531 | 66 | 321 | 1.7 | 6.1 | 0.00 | 0.00 | 0.00 | 35 | 1013.6 |
| 20260505172027 | 66 | 0 | 2.6 | 7.0 | 0.00 | 0.00 | 0.00 | 35 | 1013.5 |
| 20260505171522 | 66 | 33 | 1.7 | 2.6 | 0.00 | 0.00 | 0.00 | 35 | 1013.5 |
| 20260505171019 | 66 | 5 | 0.9 | 5.2 | 0.00 | 0.00 | 0.00 | 35 | 1013.6 |
| 20260505170516 | 65 | 57 | 5.2 | 7.0 | 0.00 | 0.00 | 0.00 | 36 | 1013.3 |
| 20260505170012 | 65 | 38 | 1.7 | 7.8 | 0.00 | 0.00 | 0.00 | 36 | 1013.5 |
| 20260505165508 | 66 | 347 | 2.6 | 5.2 | 0.00 | 0.00 | 0.00 | 35 | 1013.5 |
| 20260505165004 | 65 | 58 | 9.6 | 9.6 | 0.00 | 0.00 | 0.00 | 37 | 1013.5 |
| 20260505164500 | 66 | 14 | 2.6 | 6.1 | 0.00 | 0.00 | 0.00 | 36 | 1013.2 |
| 20260505163958 | 65 | 3 | 3.5 | 5.2 | 0.00 | 0.00 | 0.00 | 37 | 1013.5 |
| 20260505163456 | 65 | 355 | 0.9 | 3.5 | 0.00 | 0.00 | 0.00 | 37 | 1013.5 |
| 20260505162955 | 64 | 13 | 6.1 | 7.0 | 0.00 | 0.00 | 0.00 | 37 | 1013.3 |
| 20260505162451 | 63 | 53 | 1.7 | 5.2 | 0.00 | 0.00 | 0.00 | 39 | 1013.7 |
| 20260505161948 | 63 | 345 | 3.5 | 7.0 | 0.00 | 0.00 | 0.00 | 39 | 1013.8 |
| 20260505161444 | 64 | 76 | 5.2 | 7.0 | 0.00 | 0.00 | 0.00 | 38 | 1013.7 |
| 20260505160942 | 64 | 330 | 4.3 | 7.0 | 0.00 | 0.00 | 0.00 | 39 | 1013.8 |
| 20260505160440 | 63 | 31 | 3.5 | 11.3 | 0.00 | 0.00 | 0.00 | 39 | 1013.9 |
| 20260505152916 | 62 | 348 | 2.6 | 6.1 | 0.00 | 0.00 | 0.00 | 43 | 1013.5 |
| 20260505152414 | 61 | 2 | 1.7 | 6.1 | 0.00 | 0.00 | 0.00 | 44 | 1013.6 |
| 20260505151913 | 61 | 51 | 1.7 | 5.2 | 0.00 | 0.00 | 0.00 | 43 | 1013.8 |
| 20260505151410 | 61 | 347 | 4.3 | 5.2 | 0.00 | 0.00 | 0.00 | 44 | 1013.7 |
| 20260505150907 | 60 | 37 | 1.7 | 8.7 | 0.00 | 0.00 | 0.00 | 45 | 1013.8 |
| 20260505150405 | 60 | 38 | 5.2 | 7.8 | 0.00 | 0.00 | 0.00 | 45 | 1013.9 |
| 20260505140334 | 57 | 4 | 2.6 | 11.3 | 0.00 | 0.00 | 0.00 | 52 | 1012.7 |
| 20260505130257 | 56 | 322 | 0.9 | 6.1 | 0.00 | 0.00 | 0.00 | 55 | 1012.0 |
| 20260505124748 | 57 | 22 | 2.6 | 7.0 | 0.00 | 0.00 | 0.00 | 54 | 1012.1 |
| 20260505124245 | 57 | 28 | 5.2 | 7.8 | 0.00 | 0.00 | 0.00 | 54 | 1011.8 |
| 20260505123740 | 58 | 345 | 3.5 | 8.7 | 0.00 | 0.00 | 0.00 | 52 | 1011.5 |
| 20260505123237 | 58 | 315 | 1.7 | 5.2 | 0.00 | 0.00 | 0.00 | 51 | 1011.8 |
| 20260505122734 | 58 | 312 | 5.2 | 7.8 | 0.00 | 0.00 | 0.00 | 51 | 1011.6 |
| 20260505122231 | 59 | 12 | 6.1 | 8.7 | 0.00 | 0.00 | 0.00 | 49 | 1011.4 |
| 20260505121728 | 59 | 332 | 1.7 | 3.5 | 0.00 | 0.00 | 0.00 | 48 | 1011.3 |
| 20260505121224 | 60 | 6 | 1.7 | 7.0 | 0.00 | 0.00 | 0.00 | 47 | 1011.3 |
| 20260505120721 | 60 | 54 | 2.6 | 5.2 | 0.00 | 0.00 | 0.00 | 44 | 1011.2 |
| 20260505120217 | 62 | 29 | 3.5 | 6.1 | 0.00 | 0.00 | 0.00 | 39 | 1011.1 |
| 20260505115715 | 63 | 341 | 1.7 | 5.2 | 0.00 | 0.00 | 0.00 | 36 | 1011.0 |
| 20260505115213 | 65 | 322 | 6.1 | 8.7 | 0.00 | 0.00 | 0.00 | 31 | 1010.9 |
| 20260505114711 | 65 | 355 | 1.7 | 6.1 | 0.00 | 0.00 | 0.00 | 31 | 1010.5 |
| 20260505114206 | 65 | 319 | 7.0 | 12.2 | 0.00 | 0.00 | 0.00 | 30 | 1010.5 |
| 20260505113703 | 65 | 1 | 3.5 | 7.0 | 0.00 | 0.00 | 0.00 | 30 | 1010.6 |
| 20260505113200 | 65 | 269 | 3.5 | 8.7 | 0.00 | 0.00 | 0.00 | 30 | 1010.4 |
| 20260505112656 | 65 | 299 | 3.5 | 7.0 | 0.00 | 0.00 | 0.00 | 30 | 1010.1 |
| 20260505112154 | 65 | 279 | 1.7 | 7.0 | 0.00 | 0.00 | 0.00 | 30 | 1009.8 |
| 20260505111653 | 65 | 313 | 1.7 | 5.2 | 0.00 | 0.00 | 0.00 | 29 | 1009.5 |
| 20260505111149 | 65 | 315 | 1.7 | 5.2 | 0.00 | 0.00 | 0.00 | 29 | 1009.9 |
| 20260505110646 | 65 | 236 | 1.7 | 5.2 | 0.00 | 0.00 | 0.00 | 29 | 1009.8 |
| 20260505110143 | 64 | 280 | 3.5 | 5.2 | 0.00 | 0.00 | 0.00 | 30 | 1010.1 |
| 20260505102119 | 63 | 318 | 1.7 | 2.6 | 0.00 | 0.00 | 0.00 | 30 | 1009.9 |
| 20260505101617 | 63 | 332 | 1.7 | 2.6 | 0.00 | 0.00 | 0.00 | 30 | 1010.2 |
| 20260505101113 | 63 | 216 | 3.5 | 7.0 | 0.00 | 0.00 | 0.00 | 30 | 1010.2 |
| 20260505100610 | 62 | 263 | 1.7 | 6.1 | 0.00 | 0.00 | 0.00 | 31 | 1010.2 |
| 20260505100107 | 62 | 223 | 1.7 | 5.2 | 0.00 | 0.00 | 0.00 | 31 | 1010.3 |
| 20260505095603 | 61 | 283 | 0.9 | 2.6 | 0.00 | 0.00 | 0.00 | 31 | 1009.9 |
| 20260505095059 | 61 | 190 | 0.9 | 3.5 | 0.00 | 0.00 | 0.00 | 32 | 1010.3 |
| 20260505094556 | 61 | 227 | 1.7 | 2.6 | 0.00 | 0.00 | 0.00 | 32 | 1010.2 |
| 20260505094052 | 61 | 312 | 2.6 | 6.1 | 0.00 | 0.00 | 0.00 | 31 | 1009.9 |
| 20260505093549 | 61 | 235 | 0.9 | 5.2 | 0.00 | 0.00 | 0.00 | 31 | 1010.1 |
| 20260505093046 | 61 | 291 | 0.0 | 1.7 | 0.00 | 0.00 | 0.00 | 32 | 1010.1 |
| 20260505092544 | 61 | 262 | 0.9 | 1.7 | 0.00 | 0.00 | 0.00 | 32 | 1009.7 |
| 20260505092042 | 61 | 329 | 2.6 | 5.2 | 0.00 | 0.00 | 0.00 | 32 | 1009.7 |
| 20260505091538 | 62 | 227 | 1.7 | 3.5 | 0.00 | 0.00 | 0.00 | 30 | 1009.8 |
| 20260505091037 | 64 | 267 | 0.9 | 0.9 | 0.00 | 0.00 | 0.00 | 29 | 1009.6 |
| 20260505090534 | 64 | 303 | 1.7 | 6.1 | 0.00 | 0.00 | 0.00 | 28 | 1009.5 |
| 20260505090032 | 65 | 312 | 1.7 | 5.2 | 0.00 | 0.00 | 0.00 | 27 | 1009.6 |
| 20260505085530 | 64 | 315 | 1.7 | 3.5 | 0.00 | 0.00 | 0.00 | 28 | 1009.6 |
| 20260505085028 | 64 | 210 | 2.6 | 3.5 | 0.00 | 0.00 | 0.00 | 28 | 1009.6 |
| 20260505084526 | 64 | 257 | 1.7 | 5.2 | 0.00 | 0.00 | 0.00 | 28 | 1009.6 |
| 20260505084023 | 63 | 297 | 0.9 | 7.0 | 0.00 | 0.00 | 0.00 | 29 | 1009.6 |
| 20260505083520 | 63 | 285 | 1.7 | 1.7 | 0.00 | 0.00 | 0.00 | 29 | 1009.6 |
| 20260505083017 | 63 | 266 | 0.9 | 1.7 | 0.00 | 0.00 | 0.00 | 29 | 1009.6 |
| 20260505082512 | 63 | 231 | 0.9 | 2.6 | 0.00 | 0.00 | 0.00 | 29 | 1009.5 |
| 20260505082009 | 64 | 235 | 0.0 | 3.5 | 0.00 | 0.00 | 0.00 | 29 | 1009.4 |
| 20260505081506 | 64 | 261 | 0.9 | 3.5 | 0.00 | 0.00 | 0.00 | 29 | 1009.4 |
| 20260505081003 | 64 | 312 | 1.7 | 3.5 | 0.00 | 0.00 | 0.00 | 29 | 1009.2 |
| 20260505080459 | 64 | 207 | 1.7 | 6.1 | 0.00 | 0.00 | 0.00 | 29 | 1009.4 |
| 20260505075955 | 64 | 266 | 1.7 | 3.5 | 0.00 | 0.00 | 0.00 | 29 | 1009.3 |
| 20260505075452 | 64 | 256 | 1.7 | 2.6 | 0.00 | 0.00 | 0.00 | 29 | 1009.4 |
| 20260505074949 | 63 | 243 | 0.9 | 2.6 | 0.00 | 0.00 | 0.00 | 30 | 1009.4 |
| 20260505074446 | 63 | 289 | 1.7 | 2.6 | 0.00 | 0.00 | 0.00 | 30 | 1009.5 |
| 20260505073943 | 64 | 251 | 1.7 | 2.6 | 0.00 | 0.00 | 0.00 | 30 | 1009.5 |
| 20260505073441 | 64 | 254 | 0.9 | 2.6 | 0.00 | 0.00 | 0.00 | 30 | 1009.8 |
| 20260505072938 | 64 | 241 | 3.5 | 5.2 | 0.00 | 0.00 | 0.00 | 29 | 1009.6 |
| 20260505072434 | 64 | 228 | 0.9 | 3.5 | 0.00 | 0.00 | 0.00 | 29 | 1009.3 |
| 20260505071930 | 64 | 234 | 1.7 | 1.7 | 0.00 | 0.00 | 0.00 | 29 | 1009.3 |
| 20260505071426 | 65 | 272 | 1.7 | 6.1 | 0.00 | 0.00 | 0.00 | 29 | 1009.5 |
| 20260505070925 | 65 | 18 | 2.6 | 6.1 | 0.00 | 0.00 | 0.00 | 29 | 1009.6 |
| 20260505070421 | 65 | 274 | 2.6 | 5.2 | 0.00 | 0.00 | 0.00 | 29 | 1009.6 |
| 20260505065916 | 65 | 242 | 0.9 | 2.6 | 0.00 | 0.00 | 0.00 | 29 | 1009.4 |
| 20260505065413 | 65 | 230 | 2.6 | 2.6 | 0.00 | 0.00 | 0.00 | 29 | 1009.6 |
| 20260505064910 | 65 | 268 | 0.9 | 3.5 | 0.00 | 0.00 | 0.00 | 29 | 1009.6 |
| 20260505064407 | 65 | 249 | 2.6 | 3.5 | 0.00 | 0.00 | 0.00 | 29 | 1009.5 |
| 20260505063906 | 65 | 273 | 0.9 | 2.6 | 0.00 | 0.00 | 0.00 | 29 | 1009.6 |
| 20260505063402 | 65 | 288 | 0.9 | 3.5 | 0.00 | 0.00 | 0.00 | 29 | 1009.6 |
| 20260505062858 | 65 | 261 | 0.9 | 3.5 | 0.00 | 0.00 | 0.00 | 29 | 1009.6 |
| 20260505062355 | 65 | 218 | 1.7 | 5.2 | 0.00 | 0.00 | 0.00 | 29 | 1009.5 |
| 20260505061852 | 66 | 248 | 0.9 | 2.6 | 0.00 | 0.00 | 0.00 | 28 | 1009.5 |
| 20260505061351 | 66 | 262 | 0.9 | 2.6 | 0.00 | 0.00 | 0.00 | 27 | 1009.7 |
| 20260505060848 | 66 | 214 | 1.7 | 3.5 | 0.00 | 0.00 | 0.00 | 27 | 1009.7 |
| 20260505060344 | 67 | 284 | 1.7 | 1.7 | 0.00 | 0.00 | 0.00 | 27 | 1009.5 |
| 20260505055840 | 67 | 284 | 0.9 | 2.6 | 0.00 | 0.00 | 0.00 | 26 | 1009.6 |
| 20260505055336 | 67 | 240 | 0.9 | 3.5 | 0.00 | 0.00 | 0.00 | 26 | 1009.8 |
| 20260505054834 | 67 | 335 | 0.9 | 2.6 | 0.00 | 0.00 | 0.00 | 26 | 1009.4 |
| 20260505054331 | 67 | 269 | 0.9 | 6.1 | 0.00 | 0.00 | 0.00 | 26 | 1009.7 |
| 20260505053829 | 67 | 278 | 0.9 | 3.5 | 0.00 | 0.00 | 0.00 | 26 | 1009.5 |
| 20260505053326 | 67 | 307 | 3.5 | 5.2 | 0.00 | 0.00 | 0.00 | 26 | 1009.6 |
| 20260505052822 | 68 | 280 | 2.6 | 3.5 | 0.00 | 0.00 | 0.00 | 25 | 1009.7 |
| 20260505052319 | 68 | 280 | 1.7 | 7.8 | 0.00 | 0.00 | 0.00 | 25 | 1009.7 |
| 20260505051817 | 68 | 269 | 2.6 | 5.2 | 0.00 | 0.00 | 0.00 | 25 | 1009.9 |
| 20260505051314 | 68 | 266 | 1.7 | 3.5 | 0.00 | 0.00 | 0.00 | 25 | 1009.8 |
| 20260505050812 | 68 | 57 | 0.9 | 3.5 | 0.00 | 0.00 | 0.00 | 25 | 1009.9 |
| 20260505050310 | 67 | 240 | 1.7 | 3.5 | 0.00 | 0.00 | 0.00 | 25 | 1010.1 |
| 20260505041740 | 69 | 257 | 1.7 | 6.1 | 0.00 | 0.00 | 0.00 | 24 | 1010.1 |
| 20260505041237 | 69 | 234 | 0.9 | 6.1 | 0.00 | 0.00 | 0.00 | 24 | 1009.8 |
| 20260505040734 | 69 | 337 | 1.7 | 6.1 | 0.00 | 0.00 | 0.00 | 24 | 1009.8 |
| 20260505040232 | 69 | 238 | 4.3 | 8.7 | 0.00 | 0.00 | 0.00 | 24 | 1009.8 |
| 20260505035729 | 69 | 304 | 4.3 | 7.8 | 0.00 | 0.00 | 0.00 | 24 | 1009.8 |
| 20260505035224 | 69 | 290 | 2.6 | 5.2 | 0.00 | 0.00 | 0.00 | 24 | 1009.8 |
| 20260505034721 | 69 | 222 | 1.7 | 5.2 | 0.00 | 0.00 | 0.00 | 24 | 1009.7 |
| 20260505034218 | 69 | 310 | 2.6 | 6.1 | 0.00 | 0.00 | 0.00 | 24 | 1009.7 |
| 20260505033715 | 69 | 238 | 0.9 | 3.5 | 0.00 | 0.00 | 0.00 | 24 | 1009.6 |
| 20260505033213 | 68 | 244 | 1.7 | 6.1 | 0.00 | 0.00 | 0.00 | 25 | 1009.8 |
| 20260505032711 | 68 | 219 | 3.5 | 7.0 | 0.00 | 0.00 | 0.00 | 25 | 1009.7 |
| 20260505032206 | 68 | 154 | 1.7 | 6.1 | 0.00 | 0.00 | 0.00 | 26 | 1009.6 |
| 20260505031704 | 68 | 259 | 1.7 | 3.5 | 0.00 | 0.00 | 0.00 | 26 | 1009.6 |
| 20260505031200 | 68 | 263 | 1.7 | 6.1 | 0.00 | 0.00 | 0.00 | 26 | 1009.7 |
| 20260505030657 | 68 | 268 | 1.7 | 3.5 | 0.00 | 0.00 | 0.00 | 26 | 1009.7 |
| 20260505030153 | 68 | 261 | 1.7 | 3.5 | 0.00 | 0.00 | 0.00 | 26 | 1009.8 |
| 20260505025649 | 68 | 278 | 3.5 | 6.1 | 0.00 | 0.00 | 0.00 | 26 | 1009.7 |
| 20260505025148 | 68 | 273 | 3.5 | 5.2 | 0.00 | 0.00 | 0.00 | 26 | 1009.7 |
| 20260505024645 | 68 | 334 | 0.9 | 3.5 | 0.00 | 0.00 | 0.00 | 27 | 1009.5 |
| 20260505024142 | 69 | 265 | 2.6 | 3.5 | 0.00 | 0.00 | 0.00 | 26 | 1009.6 |
| 20260505023639 | 69 | 269 | 0.9 | 3.5 | 0.00 | 0.00 | 0.00 | 26 | 1009.6 |
| 20260505023136 | 70 | 250 | 0.9 | 3.5 | 0.00 | 0.00 | 0.00 | 25 | 1009.4 |
| 20260505022634 | 71 | 265 | 1.7 | 3.5 | 0.00 | 0.00 | 0.00 | 24 | 1009.4 |
| 20260505022131 | 71 | 226 | 1.7 | 5.2 | 0.00 | 0.00 | 0.00 | 24 | 1009.5 |
| 20260505021627 | 71 | 253 | 1.7 | 2.6 | 0.00 | 0.00 | 0.00 | 24 | 1009.3 |
| 20260505021124 | 72 | 242 | 1.7 | 5.2 | 0.00 | 0.00 | 0.00 | 23 | 1009.2 |
| 20260505020620 | 73 | 242 | 2.6 | 6.1 | 0.00 | 0.00 | 0.00 | 23 | 1009.3 |
| 20260505020116 | 73 | 281 | 1.7 | 3.5 | 0.00 | 0.00 | 0.00 | 22 | 1009.3 |
| 20260505015613 | 73 | 258 | 0.9 | 5.2 | 0.00 | 0.00 | 0.00 | 22 | 1009.0 |
| 20260505015110 | 73 | 230 | 2.6 | 3.5 | 0.00 | 0.00 | 0.00 | 22 | 1009.2 |
| 20260505014607 | 74 | 266 | 1.7 | 2.6 | 0.00 | 0.00 | 0.00 | 22 | 1009.3 |
| 20260505014104 | 74 | 240 | 0.9 | 3.5 | 0.00 | 0.00 | 0.00 | 22 | 1009.0 |
| 20260505013601 | 74 | 285 | 1.7 | 3.5 | 0.00 | 0.00 | 0.00 | 21 | 1009.2 |
| 20260505013058 | 74 | 272 | 1.7 | 5.2 | 0.00 | 0.00 | 0.00 | 21 | 1009.2 |
| 20260505012556 | 75 | 212 | 2.6 | 3.5 | 0.00 | 0.00 | 0.00 | 21 | 1009.4 |
| 20260505012053 | 75 | 238 | 1.7 | 2.6 | 0.00 | 0.00 | 0.00 | 21 | 1009.2 |
| 20260505011548 | 76 | 299 | 1.7 | 7.8 | 0.00 | 0.00 | 0.00 | 20 | 1009.0 |
| 20260505011046 | 76 | 252 | 1.7 | 6.1 | 0.00 | 0.00 | 0.00 | 20 | 1008.9 |
| 20260505010541 | 76 | 256 | 1.7 | 6.1 | 0.00 | 0.00 | 0.00 | 20 | 1009.2 |
| 20260505010038 | 76 | 278 | 1.7 | 6.1 | 0.00 | 0.00 | 0.00 | 19 | 1009.0 |
| 20260505005534 | 77 | 255 | 3.5 | 8.7 | 0.00 | 0.00 | 0.00 | 19 | 1009.0 |
| 20260505005032 | 77 | 281 | 6.1 | 11.3 | 0.00 | 0.00 | 0.00 | 19 | 1008.8 |
| 20260505004529 | 77 | 10 | 3.5 | 8.7 | 0.00 | 0.00 | 0.00 | 19 | 1009.2 |
| 20260505004026 | 78 | 253 | 6.1 | 8.7 | 0.00 | 0.00 | 0.00 | 19 | 1009.0 |
| 20260505003523 | 78 | 236 | 3.5 | 7.8 | 0.00 | 0.00 | 0.00 | 19 | 1008.9 |
| 20260505003020 | 78 | 254 | 3.5 | 8.7 | 0.00 | 0.00 | 0.00 | 19 | 1009.2 |
| 20260505002521 | 78 | 228 | 3.5 | 12.2 | 0.00 | 0.00 | 0.00 | 19 | 1009.4 |
| 20260505002020 | 79 | 237 | 4.3 | 11.3 | 0.00 | 0.00 | 0.00 | 19 | 1009.2 |
| 20260505001517 | 79 | 271 | 4.3 | 9.6 | 0.00 | 0.00 | 0.00 | 19 | 1009.5 |
| 20260505001014 | 79 | 248 | 5.2 | 9.6 | 0.00 | 0.00 | 0.00 | 19 | 1009.4 |
| 20260505000511 | 79 | 280 | 3.5 | 11.3 | 0.00 | 0.00 | 0.00 | 19 | 1009.4 |
| 20260505000009 | 79 | 212 | 5.2 | 9.6 | 0.00 | 0.00 | 0.00 | 19 | 1009.6 |
| 20260504235506 | 79 | 298 | 5.2 | 9.6 | 0.00 | 0.00 | 0.00 | 18 | 1009.4 |
| 20260504235002 | 79 | 264 | 6.1 | 9.6 | 0.00 | 0.00 | 0.00 | 18 | 1009.5 |
| 20260504234459 | 80 | 283 | 2.6 | 9.6 | 0.00 | 0.00 | 0.00 | 17 | 1009.4 |
| 20260504233956 | 80 | 14 | 2.6 | 12.2 | 0.00 | 0.00 | 0.00 | 17 | 1009.6 |
| 20260504233451 | 80 | 275 | 1.7 | 5.2 | 0.00 | 0.00 | 0.00 | 16 | 1009.4 |
| 20260504232949 | 80 | 277 | 5.2 | 11.3 | 0.00 | 0.00 | 0.00 | 16 | 1009.7 |
| 20260504232445 | 80 | 272 | 4.3 | 13.0 | 0.00 | 0.00 | 0.00 | 15 | 1009.5 |
| 20260504231943 | 80 | 275 | 3.5 | 6.1 | 0.00 | 0.00 | 0.00 | 12 | 1009.6 |
| 20260504231439 | 80 | 2 | 2.6 | 9.6 | 0.00 | 0.00 | 0.00 | 13 | 1009.7 |
| 20260504230935 | 80 | 245 | 2.6 | 9.6 | 0.00 | 0.00 | 0.00 | 12 | 1009.5 |
| 20260504230432 | 80 | 286 | 1.7 | 8.7 | 0.00 | 0.00 | 0.00 | 11 | 1009.6 |
| 20260504225931 | 80 | 309 | 5.2 | 13.0 | 0.00 | 0.00 | 0.00 | 11 | 1009.5 |
| 20260504225428 | 81 | 276 | 6.1 | 8.7 | 0.00 | 0.00 | 0.00 | 11 | 1009.7 |
| 20260504224925 | 81 | 290 | 6.1 | 9.6 | 0.00 | 0.00 | 0.00 | 11 | 1009.7 |
| 20260504224421 | 82 | 177 | 3.5 | 14.8 | 0.00 | 0.00 | 0.00 | 11 | 1009.6 |
| 20260504223919 | 82 | 141 | 3.5 | 6.1 | 0.00 | 0.00 | 0.00 | 12 | 1009.5 |
| 20260504223414 | 83 | 247 | 4.3 | 13.9 | 0.00 | 0.00 | 0.00 | 12 | 1009.7 |
| 20260504222910 | 83 | 249 | 7.0 | 9.6 | 0.00 | 0.00 | 0.00 | 11 | 1009.6 |
| 20260504222408 | 82 | 296 | 5.2 | 11.3 | 0.00 | 0.00 | 0.00 | 12 | 1009.7 |
| 20260504221906 | 81 | 36 | 3.5 | 14.8 | 0.00 | 0.00 | 0.00 | 11 | 1009.9 |
| 20260504221402 | 81 | 223 | 4.3 | 7.8 | 0.00 | 0.00 | 0.00 | 12 | 1009.7 |
| 20260504220900 | 82 | 288 | 5.2 | 11.3 | 0.00 | 0.00 | 0.00 | 12 | 1009.7 |
| 20260504220356 | 82 | 315 | 3.5 | 9.6 | 0.00 | 0.00 | 0.00 | 12 | 1009.6 |
| 20260504215853 | 82 | 215 | 5.2 | 11.3 | 0.00 | 0.00 | 0.00 | 12 | 1009.6 |
| 20260504215350 | 82 | 249 | 2.6 | 7.0 | 0.00 | 0.00 | 0.00 | 12 | 1009.8 |
| 20260504214846 | 82 | 348 | 3.5 | 7.8 | 0.00 | 0.00 | 0.00 | 12 | 1009.8 |
| 20260504214343 | 82 | 184 | 3.5 | 15.6 | 0.00 | 0.00 | 0.00 | 12 | 1009.9 |
| 20260504213839 | 82 | 308 | 5.2 | 7.0 | 0.00 | 0.00 | 0.00 | 13 | 1009.8 |
| 20260504213335 | 83 | 317 | 5.2 | 12.2 | 0.00 | 0.00 | 0.00 | 12 | 1009.8 |
| 20260504212833 | 83 | 239 | 2.6 | 13.9 | 0.00 | 0.00 | 0.00 | 13 | 1009.7 |
| 20260504212329 | 83 | 272 | 3.5 | 8.7 | 0.00 | 0.00 | 0.00 | 12 | 1009.6 |
| 20260504211827 | 84 | 257 | 9.6 | 13.0 | 0.00 | 0.00 | 0.00 | 12 | 1010.1 |
| 20260504211328 | 84 | 223 | 6.1 | 12.2 | 0.00 | 0.00 | 0.00 | 12 | 1010.1 |
| 20260504210825 | 83 | 277 | 3.5 | 13.0 | 0.00 | 0.00 | 0.00 | 13 | 1010.1 |
| 20260504210322 | 84 | 274 | 8.7 | 15.6 | 0.00 | 0.00 | 0.00 | 13 | 1010.2 |
| 20260504205820 | 83 | 232 | 5.2 | 8.7 | 0.00 | 0.00 | 0.00 | 14 | 1010.2 |
| 20260504205317 | 84 | 273 | 3.5 | 15.6 | 0.00 | 0.00 | 0.00 | 13 | 1010.3 |
| 20260504204815 | 84 | 312 | 6.1 | 7.8 | 0.00 | 0.00 | 0.00 | 14 | 1010.4 |
| 20260504204313 | 84 | 209 | 4.3 | 8.7 | 0.00 | 0.00 | 0.00 | 16 | 1010.4 |
| 20260504203813 | 84 | 282 | 5.2 | 8.7 | 0.00 | 0.00 | 0.00 | 16 | 1010.4 |
| 20260504203309 | 85 | 273 | 3.5 | 8.7 | 0.00 | 0.00 | 0.00 | 17 | 1010.6 |
| 20260504202804 | 85 | 307 | 3.5 | 7.0 | 0.00 | 0.00 | 0.00 | 18 | 1010.4 |
| 20260504202304 | 85 | 315 | 4.3 | 7.8 | 0.00 | 0.00 | 0.00 | 19 | 1010.7 |
| 20260504201758 | 83 | 218 | 2.6 | 9.6 | 0.00 | 0.00 | 0.00 | 20 | 1011.0 |